Météo Nord-Pas-de-Calais   La météo au plus près de chez vous

Station météorologique

Observations météo à St Rambert Cg01 (01384)

01384003 296 m Dernier relevé à 15:42
32.6°C
Vent 4 km/h

Journée consultée

Vendredi 4 Septembre 2026

Synthèse de la journée

Périodes de référence en UTC

Température maximale

32.9°C

à 15:24

06h 06h

Température minimale

12.8°C

à 07:12

18h 18h

Rafale maximale

12 km/h

à 15:18

00h 00h

Précipitations

0 mm

Cumul quotidien

06h 06h

Graphiques de la journée

Heure locale Réduire

Données détaillées

Relevés météo

Pas de 6 minutes Afficher les relevés infra-horaires
Relevés météo détaillés à St Rambert Cg01 pour le Vendredi 4 Septembre 2026
Heure Température °C Vent moyen (raf.), km/h Précipitations mm
15:42 32.6 °C 4 km/h (11 km/h) 0 mm0 mm
15:36 32.8 °C 4 km/h (11 km/h) 0 mm0 mm
15:30 32.9 °C 4 km/h (10 km/h) 0 mm0 mm
15:24 32.9 °C 4 km/h (12 km/h) 0 mm0 mm
15:18 32.3 °C 4 km/h (12 km/h) 0 mm0 mm
15:12 32.2 °C 4 km/h (8 km/h) 0 mm0 mm
15:06 32.1 °C 4 km/h (8 km/h) 0 mm0 mm
15:00 32 °C 4 km/h (8 km/h) 0 mm0 mm
14:54 32.2 °C 4 km/h (8 km/h) 0 mm0 mm
14:48 32 °C 4 km/h (9 km/h) 0 mm0 mm
14:42 31.8 °C 4 km/h (9 km/h) 0 mm0 mm
14:36 31.4 °C 4 km/h (8 km/h) 0 mm0 mm
14:30 31.5 °C 4 km/h (7 km/h) 0 mm0 mm
14:24 31.5 °C 3 km/h (7 km/h) 0 mm0 mm
14:18 31.5 °C 4 km/h (7 km/h) 0 mm0 mm
14:12 31.2 °C 4 km/h (9 km/h) 0 mm0 mm
14:06 30.9 °C 4 km/h (9 km/h) 0 mm0 mm
14:00 30.5 °C 4 km/h (9 km/h) 0 mm0 mm
13:54 30.3 °C 4 km/h (8 km/h) 0 mm0 mm
13:48 30.1 °C 4 km/h (8 km/h) 0 mm0 mm
13:42 30 °C 4 km/h (7 km/h) 0 mm0 mm
13:36 29.8 °C 4 km/h (8 km/h) 0 mm0 mm
13:30 29.6 °C 4 km/h (8 km/h) 0 mm0 mm
13:24 29.5 °C 4 km/h (9 km/h) 0 mm0 mm
13:18 29.4 °C 5 km/h (9 km/h) 0 mm0 mm
13:12 29.1 °C 5 km/h (11 km/h) 0 mm0 mm
13:06 29 °C 5 km/h (8 km/h) 0 mm0 mm
13:00 29 °C 4 km/h (8 km/h) 0 mm0 mm
12:54 28.7 °C 5 km/h (8 km/h) 0 mm0 mm
12:48 28.4 °C 5 km/h (10 km/h) 0 mm0 mm
12:42 28.2 °C 4 km/h (7 km/h) 0 mm0 mm
12:36 27.9 °C 4 km/h (7 km/h) 0 mm0 mm
12:30 27.9 °C 4 km/h (8 km/h) 0 mm0 mm
12:24 27.7 °C 4 km/h (10 km/h) 0 mm0 mm
12:18 27.1 °C 4 km/h (10 km/h) 0 mm0 mm
12:12 26.7 °C 4 km/h (7 km/h) 0 mm0 mm
12:06 26.3 °C 4 km/h (7 km/h) 0 mm0 mm
12:00 25.9 °C 3 km/h (6 km/h) 0 mm0 mm
11:54 25.7 °C 3 km/h (6 km/h) 0 mm0 mm
11:48 25.3 °C 3 km/h (5 km/h) 0 mm0 mm
11:42 25.3 °C 3 km/h (5 km/h) 0 mm0 mm
11:36 25 °C 3 km/h (5 km/h) 0 mm0 mm
11:30 24.3 °C 3 km/h (5 km/h) 0 mm0 mm
11:24 24.1 °C 3 km/h (5 km/h) 0 mm0 mm
11:18 23.9 °C 3 km/h (6 km/h) 0 mm0 mm
11:12 23.2 °C 4 km/h (6 km/h) 0 mm0 mm
11:06 23.2 °C 3 km/h (6 km/h) 0 mm0 mm
11:00 22.8 °C 3 km/h (5 km/h) 0 mm0 mm
10:54 22.4 °C 3 km/h (5 km/h) 0 mm0 mm
10:48 22.3 °C 3 km/h (5 km/h) 0 mm0 mm
10:42 21.7 °C 3 km/h (6 km/h) 0 mm0 mm
10:36 21.4 °C 3 km/h (5 km/h) 0 mm0 mm
10:30 21.2 °C 3 km/h (6 km/h) 0 mm0 mm
10:24 20.7 °C 3 km/h (6 km/h) 0 mm0 mm
10:18 20.7 °C 2 km/h (5 km/h) 0 mm0 mm
10:12 20.4 °C 2 km/h (6 km/h) 0 mm0 mm
10:06 20 °C 2 km/h (7 km/h) 0 mm0 mm
10:00 19.7 °C 3 km/h (7 km/h) 0 mm0 mm
09:54 19.5 °C 3 km/h (8 km/h) 0 mm0 mm
09:48 19.5 °C 3 km/h (8 km/h) 0 mm0 mm
09:42 19.2 °C 3 km/h (8 km/h) 0 mm0 mm
09:36 18.8 °C 2 km/h (7 km/h) 0 mm0 mm
09:30 18.5 °C 3 km/h (7 km/h) 0 mm0 mm
09:24 18.1 °C 2 km/h (8 km/h) 0 mm0 mm
09:18 17.5 °C 2 km/h (8 km/h) 0 mm0 mm
09:12 17.2 °C 2 km/h (7 km/h) 0 mm0 mm
09:06 16.8 °C 3 km/h (9 km/h) 0 mm0 mm
09:00 16.5 °C 3 km/h (9 km/h) 0 mm0 mm
08:54 16 °C 2 km/h (11 km/h) 0 mm0 mm
08:48 15.6 °C 2 km/h (11 km/h) 0 mm0 mm
08:42 15 °C 2 km/h (8 km/h) 0 mm0 mm
08:36 14.3 °C 2 km/h (8 km/h) 0 mm0 mm
08:30 13.8 °C 2 km/h (7 km/h) 0 mm0 mm
08:24 13.4 °C 2 km/h (7 km/h) 0 mm0 mm
08:18 13.2 °C 2 km/h (8 km/h) 0 mm0 mm
08:12 13.2 °C 2 km/h (7 km/h) 0 mm0 mm
08:06 13.1 °C 2 km/h (8 km/h) 0 mm0 mm
08:00 13.1 °C 3 km/h (10 km/h) 0 mm0 mm
07:54 13 °C 2 km/h (10 km/h) 0 mm0 mm
07:48 12.9 °C 2 km/h (7 km/h) 0 mm0 mm
07:42 12.9 °C 2 km/h (7 km/h) 0 mm0 mm
07:36 12.9 °C 0 km/h (8 km/h) 0 mm0 mm
07:30 12.9 °C 2 km/h (8 km/h) 0 mm0 mm
07:24 12.8 °C 2 km/h (8 km/h) 0 mm0 mm
07:18 12.8 °C 2 km/h (8 km/h) 0 mm0 mm
07:12 12.8 °C 0 km/h (6 km/h) 0 mm0 mm
07:06 12.9 °C 2 km/h (7 km/h) 0 mm0 mm
07:00 13 °C 2 km/h (8 km/h) 0 mm0 mm
06:54 13.1 °C 2 km/h (9 km/h) 0 mm0 mm
06:48 13.2 °C 2 km/h (9 km/h) 0 mm0 mm
06:42 13.1 °C 2 km/h (10 km/h) 0 mm0 mm
06:36 13.1 °C 2 km/h (9 km/h) 0 mm0 mm
06:30 13.2 °C 2 km/h (8 km/h) 0 mm0 mm
06:24 13.2 °C 2 km/h (8 km/h) 0 mm0 mm
06:18 13.3 °C 2 km/h (7 km/h) 0 mm0 mm
06:12 13.2 °C 2 km/h (9 km/h) 0 mm0 mm
06:06 13.2 °C 0 km/h (6 km/h) 0 mm0 mm
06:00 13.3 °C 0 km/h (6 km/h) 0 mm0 mm
05:54 13.3 °C 2 km/h (6 km/h) 0 mm0 mm
05:48 13.3 °C 2 km/h (7 km/h) 0 mm0 mm
05:42 13.4 °C 2 km/h (7 km/h) 0 mm0 mm
05:36 13.4 °C 2 km/h (8 km/h) 0 mm0 mm
05:30 13.4 °C 2 km/h (8 km/h) 0 mm0 mm
05:24 13.4 °C 0 km/h (4 km/h) 0 mm0 mm
05:18 13.4 °C 2 km/h (7 km/h) 0 mm0 mm
05:12 13.4 °C 2 km/h (9 km/h) 0 mm0 mm
05:06 13.5 °C 0 km/h (5 km/h) 0 mm0 mm
05:00 13.5 °C 0 km/h (6 km/h) 0 mm0 mm
04:54 13.5 °C 2 km/h (6 km/h) 0 mm0 mm
04:48 13.6 °C 0 km/h (5 km/h) 0 mm0 mm
04:42 13.6 °C 0 km/h (5 km/h) 0 mm0 mm
04:36 13.6 °C 0 km/h (6 km/h) 0 mm0 mm
04:30 13.6 °C 0 km/h (6 km/h) 0 mm0 mm
04:24 13.6 °C 0 km/h (5 km/h) 0 mm0 mm
04:18 13.7 °C 2 km/h (5 km/h) 0 mm0 mm
04:12 13.7 °C 0 km/h (5 km/h) 0 mm0 mm
04:06 13.8 °C 2 km/h (7 km/h) 0 mm0 mm
04:00 13.9 °C 2 km/h (6 km/h) 0 mm0 mm
03:54 14 °C 2 km/h (6 km/h) 0 mm0 mm
03:48 14 °C 2 km/h (8 km/h) 0 mm0 mm
03:42 14 °C 2 km/h (8 km/h) 0 mm0 mm
03:36 13.9 °C 0 km/h (8 km/h) 0 mm0 mm
03:30 13.9 °C 2 km/h (8 km/h) 0 mm0 mm
03:24 13.9 °C 2 km/h (5 km/h) 0 mm0 mm
03:18 13.9 °C 0 km/h (4 km/h) 0 mm0 mm
03:12 14 °C 0 km/h (4 km/h) 0 mm0 mm
03:06 14.2 °C 2 km/h (5 km/h) 0 mm0 mm
03:00 14.3 °C 2 km/h (5 km/h) 0 mm0 mm
02:54 14.4 °C 2 km/h (5 km/h) 0 mm0 mm
02:48 14.4 °C 2 km/h (9 km/h) 0 mm0 mm
02:42 14.4 °C 2 km/h (9 km/h) 0 mm0 mm
02:36 14.4 °C 2 km/h (5 km/h) 0 mm0 mm
02:30 14.4 °C 2 km/h (5 km/h) 0 mm0 mm
02:24 14.4 °C 2 km/h (4 km/h) 0 mm0 mm
02:18 14.5 °C 2 km/h (7 km/h) 0 mm0 mm
02:12 14.5 °C 2 km/h (7 km/h) 0 mm0 mm
02:06 14.7 °C 2 km/h (5 km/h) 0 mm0 mm
02:00 14.7 °C 0 km/h (4 km/h) 0 mm0 mm
01:54 14.7 °C 0 km/h (6 km/h) 0 mm0 mm
01:48 14.7 °C 0 km/h (7 km/h) 0 mm0 mm
01:42 14.8 °C 2 km/h (7 km/h) 0 mm0 mm
01:36 14.8 °C 2 km/h (5 km/h) 0 mm0 mm
01:30 14.8 °C 2 km/h (5 km/h) 0 mm0 mm
01:24 14.7 °C 0 km/h (6 km/h) 0 mm0 mm
01:18 14.7 °C 0 km/h (6 km/h) 0 mm0 mm
01:12 14.8 °C 2 km/h (4 km/h) 0 mm0 mm
01:06 14.9 °C 0 km/h (5 km/h) 0 mm0 mm
01:00 15 °C 0 km/h (5 km/h) 0 mm0 mm
00:54 15 °C 0 km/h (4 km/h) 0 mm0 mm
00:48 15.1 °C 0 km/h (4 km/h) 0 mm0 mm
00:42 15.1 °C 0 km/h (4 km/h) 0 mm0 mm
00:36 15.2 °C 0 km/h (3 km/h) 0 mm0 mm
00:30 15.3 °C 0 km/h (4 km/h) 0 mm0 mm
00:24 15.4 °C 0 km/h (4 km/h) 0 mm0 mm
00:18 15.6 °C 0 km/h (4 km/h) 0 mm0 mm
00:12 15.6 °C 0 km/h (3 km/h) 0 mm0 mm
00:06 15.7 °C 0 km/h (5 km/h) 0 mm0 mm
00:00 15.7 °C 0 km/h (5 km/h) 0 mm0 mm

Données via Météo-France

Relevés météo à St Rambert Cg01

Cette page rassemble les observations de la station de St Rambert Cg01 : température, humidité, vent, précipitations et pression atmosphérique. Les graphiques facilitent le suivi de la journée, tandis que le tableau donne accès aux mesures horaires et infra-horaires disponibles.

Pour replacer ces mesures dans leur contexte, consultez la climatologie de St Rambert Cg01. Retrouvez aussi la carte des observations météo en temps réel.